KHGRKSHD

Guest
Details From KHGR - HAGERSTOWN RGNL RICHARD A HENSON FLD
To KSHD - Shenandoah Valley Regional
Flight Number -
Tags generated
Created
Modified
Stats Distance 103 nm / 190 km
Max Altitude 6,000 ft / 1,829 m
Waypoints 3
Social Downloads 1
Likes 0
Share VATSIM

Download

Looking for another format? Having issues loading an existing format? Contact us
Advertisement - Login to hide

Notes

Basic altitude profile: - Ascent Rate: 2500ft/min - Ascent Speed: 250kts - Cruise Altitude: 35000ft - Cruise Speed: 420kts - Descent Rate: 1500ft/min - Descent Speed: 250kts Options: - Use NATs: yes - Use PACOTS: yes - Use low airways: yes - Use high airways: no

Route

KHGR KERRE KSHD

ID Type Via Altitude Latitude Longitude Leg Dist Tot Dist Heading (true) Name
O KHGR APT - 0 ft / 0 m 39.70835˚ -77.72770˚ - 0 nm - HAGERSTOWN RGNL RICHARD A HENSON FLD
KERRE FIX - 6,000 ft / 1,829 m 38.64194˚ -78.53238˚ 74 nm 74 nm 211° / 210° -
O KSHD APT - 0 ft / 0 m 38.26384˚ -78.89647˚ 28 nm 102 nm 217° / 217° Shenandoah Valley Regional

Altitude Profile

Advertisement - Login to hide

KHGR

Details ICAO KHGR (HGR)
Name HAGERSTOWN RGNL RICHARD A HENSON FLD
Region United States
Timezone America/New_York (UTC-4.0)
Stats Elevation 704 ft / 215 m (AMSL)
Location 39.708352° -77.727704°
Runways 2
Magnetic Variation 10.595° W

METAR

KHGR 212153Z 17004KT 10SM BKN055 27/15 A3012 RMK AO2 SLP204 T02670150

Decode

TAF

Not found

Departure Runways

ID Width Length Bearing (true) Bearing (mag) Surface Threshold Offset Overrun Length
02 98 ft / 30 m 3,163 ft / 964 m 14.80° 25.39° Asphalt 0 ft / 0 m 0 ft / 0 m
09 151 ft / 46 m 7,007 ft / 2,136 m 80.45° 91.04° Asphalt 0 ft / 0 m 384 ft / 117 m
20 98 ft / 30 m 3,163 ft / 964 m 194.81° 205.40° Asphalt 0 ft / 0 m 0 ft / 0 m
27 151 ft / 46 m 7,007 ft / 2,136 m 260.47° 271.06° Asphalt 115 ft / 35 m 0 ft / 0 m

KSHD

Details ICAO KSHD (SHD)
Name Shenandoah Valley Regional
Region United States
Timezone America/New_York (UTC-4.0)
Stats Elevation 1,201 ft / 366 m (AMSL)
Location 38.263840° -78.896471°
Runways 1
Magnetic Variation 9.577° W

METAR

KSHD 212235Z AUTO 16005KT 10SM -RA SCT047 BKN065 24/18 A3015 RMK AO2 LTG DSNT W T02410182

Decode

TAF

Not found

Destination Runways

ID Width Length Bearing (true) Bearing (mag) Surface Threshold Offset Overrun Length
05 151 ft / 46 m 5,995 ft / 1,827 m 38.05° 47.63° Asphalt 184 ft / 56 m 0 ft / 0 m
23 151 ft / 46 m 5,995 ft / 1,827 m 218.05° 227.63° Asphalt 157 ft / 48 m 26 ft / 8 m

Approach Navaids

Runway Type Ident Frequency Range Bearing (true) Bearing (mag) Slope Elevation
05 Localiser ISHD 109.50 MHz 18 nm / 33 km 38.14° 47.71° - 1,201 ft / 366 m (AMSL)
05 Glidescope ISHD 109.50 MHz 10 nm / 19 km 38.05° 47.63° 3.00° 1,178 ft / 359 m (AMSL)